When you browse on this site, cookies collect data to enhance your experience and personalize the content and advertising you see.
Visit our Privacy Policy to learn more. By continuing to use the site, you agree to this use of cookies and data.
  • In Italy
  • List of Countries
  • For 7 days
  • Water Temperature
  • Satellite Maps
  • Weather Map
  • Weather Widgets
  • user-avatar
    Login

    Hourly Weather Belfort

    Today, 23 July, Tuesday

    Time Temperature Precipitation Wind Pressure Humidity
    00:00 +16°C° 0 mm 2 mps 751 mmHg 78%
    01:00 +16°C° 0 mm 2 mps 751 mmHg 78%
    02:00 +16°C° 0 mm 2 mps 750 mmHg 80%
    03:00 +16°C° 0 mm 2 mps 750 mmHg 82%
    04:00 +15°C° 0 mm 2 mps 750 mmHg 84%
    05:00 +15°C° 0.2 mm 1 mps 750 mmHg 87%
    06:00 +15°C° 0.2 mm 1 mps 750 mmHg 90%
    07:00 +15°C° 0.2 mm 1 mps 750 mmHg 92%
    08:00 +16°C° 0 mm 1 mps 750 mmHg 91%
    09:00 +16°C° 0 mm 1 mps 750 mmHg 90%
    10:00 +18°C° 0 mm 1 mps 750 mmHg 89%
    11:00 +17°C° 0 mm 2 mps 750 mmHg 89%
    12:00 +18°C° 0 mm 2 mps 750 mmHg 90%
    13:00 +18°C° 0 mm 2 mps 750 mmHg 90%
    14:00 +19°C° 0 mm 2 mps 750 mmHg 87%
    15:00 +20°C° 0 mm 3 mps 750 mmHg 84%
    16:00 +21°C° 0 mm 3 mps 750 mmHg 81%
    17:00 +20°C° 0 mm 3 mps 750 mmHg 82%
    18:00 +20°C° 0 mm 3 mps 750 mmHg 83%
    19:00 +20°C° 0 mm 2 mps 750 mmHg 84%
    20:00 +19°C° 0 mm 2 mps 750 mmHg 87%
    21:00 +19°C° 0 mm 2 mps 750 mmHg 90%
    22:00 +19°C° 0 mm 1 mps 750 mmHg 93%
    23:00 +19°C° 0 mm 1 mps 750 mmHg 95%

    Tomorrow, 24 July, Wednesday

    Time Temperature Precipitation Wind Pressure Humidity
    00:00 +19°C° 0 mm 1 mps 750 mmHg 96%
    01:00 +18°C° 0 mm 1 mps 749 mmHg 97%
    02:00 +18°C° 0 mm 1 mps 749 mmHg 97%
    03:00 +18°C° 0 mm 1 mps 749 mmHg 97%
    04:00 +16°C° 0 mm 1 mps 749 mmHg 97%
    05:00 +19°C° 0 mm 1 mps 749 mmHg 92%
    06:00 +20°C° 0 mm 2 mps 749 mmHg 87%
    07:00 +21°C° 0 mm 2 mps 749 mmHg 81%
    08:00 +24°C° 0.1 mm 2 mps 749 mmHg 73%
    09:00 +25°C° 0.1 mm 2 mps 750 mmHg 65%
    10:00 +27°C° 0.1 mm 3 mps 750 mmHg 57%
    11:00 +27°C° 0.1 mm 3 mps 750 mmHg 56%
    12:00 +28°C° 0.1 mm 3 mps 750 mmHg 55%
    13:00 +28°C° 0.1 mm 3 mps 750 mmHg 54%
    14:00 +28°C° 0.2 mm 3 mps 750 mmHg 56%
    15:00 +28°C° 0.2 mm 3 mps 750 mmHg 58%
    16:00 +27°C° 0.2 mm 3 mps 750 mmHg 61%
    17:00 +26°C° 0.1 mm 3 mps 749 mmHg 67%
    18:00 +25°C° 0.1 mm 2 mps 749 mmHg 72%
    19:00 +23°C° 0.1 mm 2 mps 749 mmHg 78%
    20:00 +21°C° 0 mm 2 mps 749 mmHg 83%
    21:00 +21°C° 0 mm 1 mps 750 mmHg 87%
    22:00 +19°C° 0 mm 1 mps 750 mmHg 91%
    23:00 +19°C° 0 mm 1 mps 750 mmHg 92%

    Day after tomorrow, 25 July, Thursday

    Time Temperature Precipitation Wind Pressure Humidity
    00:00 +18°C° 0 mm 1 mps 750 mmHg 92%
    01:00 +18°C° 0 mm 1 mps 750 mmHg 92%
    02:00 +18°C° 0 mm 1 mps 750 mmHg 93%
    03:00 +18°C° 0 mm 1 mps 750 mmHg 94%
    04:00 +16°C° 0 mm 1 mps 750 mmHg 94%
    05:00 +19°C° 0 mm 1 mps 750 mmHg 88%
    06:00 +20°C° 0 mm 1 mps 750 mmHg 81%
    07:00 +22°C° 0 mm 1 mps 750 mmHg 75%
    08:00 +23°C° 0 mm 1 mps 751 mmHg 67%
    09:00 +25°C° 0 mm 2 mps 751 mmHg 60%
    10:00 +26°C° 0 mm 2 mps 751 mmHg 52%
    11:00 +27°C° 0 mm 2 mps 751 mmHg 48%
    12:00 +28°C° 0 mm 2 mps 751 mmHg 45%
    13:00 +29°C° 0 mm 3 mps 751 mmHg 41%
    14:00 +28°C° 0 mm 3 mps 751 mmHg 42%
    15:00 +28°C° 0 mm 4 mps 750 mmHg 43%
    16:00 +28°C° 0 mm 4 mps 750 mmHg 44%
    17:00 +26°C° 0 mm 3 mps 750 mmHg 50%
    18:00 +24°C° 0 mm 3 mps 750 mmHg 56%
    19:00 +23°C° 0 mm 2 mps 750 mmHg 63%
    20:00 +20°C° 0 mm 2 mps 750 mmHg 68%
    21:00 +19°C° 0 mm 2 mps 750 mmHg 74%
    22:00 +18°C° 0 mm 2 mps 750 mmHg 79%
    23:00 +17°C° 0 mm 2 mps 750 mmHg 83%

    26 July, Friday

    Time Temperature Precipitation Wind Pressure Humidity
    00:00 +17°C° 0 mm 2 mps 750 mmHg 88%
    01:00 +16°C° 0 mm 2 mps 750 mmHg 92%
    02:00 +16°C° 0 mm 2 mps 750 mmHg 93%
    03:00 +16°C° 0 mm 2 mps 749 mmHg 94%
    04:00 +15°C° 0 mm 2 mps 749 mmHg 94%
    05:00 +17°C° 0 mm 3 mps 749 mmHg 85%
    06:00 +19°C° 0 mm 3 mps 749 mmHg 76%
    07:00 +21°C° 0 mm 4 mps 749 mmHg 67%
    08:00 +22°C° 0 mm 4 mps 749 mmHg 62%
    09:00 +23°C° 0 mm 4 mps 749 mmHg 57%
    10:00 +26°C° 0 mm 4 mps 750 mmHg 53%
    11:00 +26°C° 0 mm 4 mps 749 mmHg 50%
    12:00 +27°C° 0 mm 4 mps 749 mmHg 48%
    13:00 +27°C° 0 mm 4 mps 749 mmHg 46%
    14:00 +27°C° 0 mm 5 mps 748 mmHg 47%
    15:00 +26°C° 0 mm 5 mps 748 mmHg 49%
    16:00 +26°C° 0 mm 5 mps 748 mmHg 50%
    17:00 +23°C° 0 mm 4 mps 748 mmHg 57%
    18:00 +22°C° 0 mm 4 mps 748 mmHg 64%
    19:00 +20°C° 0 mm 4 mps 748 mmHg 71%
    20:00 +19°C° 0 mm 3 mps 748 mmHg 77%
    21:00 +18°C° 0 mm 3 mps 748 mmHg 83%
    22:00 +17°C° 0 mm 2 mps 748 mmHg 89%
    23:00 +17°C° 0 mm 2 mps 748 mmHg 91%

    27 July, Saturday

    Time Temperature Precipitation Wind Pressure Humidity
    00:00 +17°C° 0 mm 2 mps 747 mmHg 93%
    01:00 +17°C° 0 mm 2 mps 747 mmHg 95%
    02:00 +17°C° 0 mm 2 mps 747 mmHg 95%
    03:00 +16°C° 0 mm 2 mps 747 mmHg 96%
    04:00 +16°C° 0 mm 2 mps 747 mmHg 96%
    05:00 +18°C° 0 mm 3 mps 747 mmHg 90%
    06:00 +19°C° 0 mm 3 mps 747 mmHg 83%
    07:00 +21°C° 0 mm 4 mps 747 mmHg 76%
    08:00 +22°C° 0 mm 4 mps 747 mmHg 70%
    09:00 +25°C° 0 mm 5 mps 747 mmHg 64%
    10:00 +26°C° 0 mm 5 mps 747 mmHg 59%
    11:00 +27°C° 0 mm 5 mps 747 mmHg 56%
    12:00 +28°C° 0 mm 5 mps 747 mmHg 54%
    13:00 +28°C° 0 mm 5 mps 746 mmHg 52%
    14:00 +28°C° 0 mm 5 mps 746 mmHg 54%
    15:00 +28°C° 0 mm 5 mps 746 mmHg 56%
    16:00 +28°C° 0 mm 5 mps 746 mmHg 58%
    17:00 +26°C° 0 mm 5 mps 746 mmHg 63%
    18:00 +25°C° 0 mm 4 mps 745 mmHg 69%
    19:00 +23°C° 0 mm 4 mps 745 mmHg 74%
    20:00 +22°C° 0 mm 3 mps 745 mmHg 78%
    21:00 +21°C° 0 mm 3 mps 745 mmHg 82%
    22:00 +20°C° 0 mm 3 mps 746 mmHg 86%
    23:00 +20°C° 0 mm 3 mps 746 mmHg 88%

    28 July, Sunday

    Time Temperature Precipitation Wind Pressure Humidity
    00:00 +20°C° 0 mm 3 mps 745 mmHg 89%
    01:00 +20°C° 0 mm 3 mps 745 mmHg 91%
    02:00 +19°C° 0 mm 3 mps 745 mmHg 92%
    03:00 +19°C° 0 mm 3 mps 745 mmHg 93%
    04:00 +19°C° 0 mm 3 mps 745 mmHg 94%
    05:00 +20°C° 0 mm 3 mps 746 mmHg 87%
    06:00 +22°C° 0 mm 3 mps 746 mmHg 80%
    07:00 +24°C° 0 mm 3 mps 746 mmHg 73%
    08:00 +26°C° 0 mm 4 mps 746 mmHg 65%
    09:00 +27°C° 0 mm 5 mps 746 mmHg 58%
    10:00 +29°C° 0 mm 5 mps 746 mmHg 51%
    11:00 +29°C° 0 mm 5 mps 746 mmHg 49%
    12:00 +30°C° 0 mm 5 mps 746 mmHg 48%
    13:00 +30°C° 0 mm 5 mps 746 mmHg 46%
    14:00 +30°C° 0 mm 5 mps 746 mmHg 48%
    15:00 +30°C° 0 mm 5 mps 746 mmHg 49%
    16:00 +29°C° 0 mm 5 mps 746 mmHg 51%
    17:00 +28°C° 0 mm 4 mps 746 mmHg 57%
    18:00 +26°C° 0 mm 4 mps 746 mmHg 63%
    19:00 +25°C° 0 mm 4 mps 746 mmHg 68%
    20:00 +24°C° 0 mm 3 mps 746 mmHg 72%
    21:00 +21°C° 0 mm 3 mps 746 mmHg 76%
    22:00 +20°C° 0 mm 3 mps 746 mmHg 80%
    23:00 +20°C° 0 mm 2 mps 746 mmHg 81%
    Show more